[Iaude] MPEC O101: 2024 OU [a=1.55,e=0.40,i=7.0,H=24.2]
    mpec at cfa.harvard.edu 
    mpec at cfa.harvard.edu
       
    Tue Jul 30 10:00:10 EDT 2024
    
    
  
M.P.E.C. 2024-O101                                Issued 2024 July 30, 13:58 UT
     The Minor Planet Electronic Circulars contain information on unusual
         minor planets, routine data on comets and natural satellites,
         and occasional editorial announcements.  They are published
    on behalf of Division F of the International Astronomical Union by the
          Minor Planet Center, Smithsonian Astrophysical Observatory,
                          Cambridge, MA 02138, U.S.A.
			  
             Prepared using the Tamkin Foundation Computer Network
                              MPC at CFA.HARVARD.EDU
            URL https://www.minorplanetcenter.net/    ISSN 1523-6714
                                    2024 OU                                     
Observations:
     K24O00U* C2024 07 28.58389723 02 47.036+12 59 48.63         20.73wXEO101F51
     K24O00U  C2024 07 28.59204323 02 43.793+12 59 51.66         21.03wXEO101F51
     K24O00U  C2024 07 28.60041123 02 40.458+12 59 54.56         20.99wXEO101F51
     K24O00U  C2024 07 28.60866023 02 37.202+12 59 57.29         20.82wXEO101F51
     K24O00U KC2024 07 28.96299223 00 38.599+13 01 16.82         20.2 GVEO101J95
     K24O00U KC2024 07 28.97363023 00 34.769+13 01 21.83         20.0 GVEO101J95
     K24O00U KC2024 07 29.29257722 58 44.46 +13 03 31.4          21.3 GVEO101H21
     K24O00U KC2024 07 29.29817222 58 42.39 +13 03 33.7          21.2 GVEO101H21
     K24O00U KC2024 07 29.30376822 58 40.36 +13 03 35.3          20.9 GVEO101H21
     K24O00U KC2024 07 29.30610022 58 39.48 +13 03 36.1          20.8 GVEO101H21
     K24O00U pC2024 07 29.98133822 54 59.69 +13 06 34.6          20.2 VSEO101L01
     K24O00U pC2024 07 29.98432522 54 58.71 +13 06 35.3          20.6 VSEO101L01
     K24O00U pC2024 07 29.98661122 54 57.87 +13 06 37.0          20.7 VSEO101L01
     K24O00U !C2024 07 30.37979 22 52 54.56 +13 08 22.0          20.1 GVEO101673
     K24O00U !C2024 07 30.38306 22 52 53.50 +13 08 22.6                VEO101673
Observer details:
673 Table Mountain Observatory, Wrightwood.  Observer J. Pittichova.  1.0-m
    f/15 reflector + CCD.
F51 Pan-STARRS 1, Haleakala.  Observers J. Herman, T. Lowe, P. Minguez, A.
    Schultz, I. Smith.  Measurers K. Chambers, T. de Boer, J. Fairlamb, H.
    Gao, M. Huber, C.-C. Lin, E. Magnier, Y. Ramanjooloo, R. Wainscoat, R.
    Weryk.  1.8-m Ritchey-Chretien + CCD.
H21 Astronomical Research Observatory, Westfield.  Observer R. Holmes.
    Measurers T. Linder, R. Holmes.  0.76-m f/3.0 astrograph + CCD.
J95 Great Shefford.  Observer P. Birtwhistle.  0.41-m f/6.3 Schmidt-Cassegrain
    + CCD.
L01 Visnjan Observatory, Tican.  Observers K. Korlevic, L. Poropat.  Measurer
    K. Korlevic.  1.0-m f/2.9 reflector + CCD.
Orbital elements:
2024 OU                                                  Earth MOID = 0.0031 AU
Epoch 2024 Oct. 17.0 TT = JDT 2460600.5                 MPC                     
M  66.20003              (2000.0)            P               Q                  
n   0.51260686     Peri.  314.40233     -0.30683765     +0.94565165             
a   1.5462502      Node   297.44671     -0.83511424     -0.32177057             
e   0.3955064      Incl.    6.96891     -0.45654667     -0.04697513             
P   1.92           H   24.25          G   0.15           U   8                  
Residuals in seconds of arc
240728 F51  0.1+  0.0     240728 J95  0.1+  0.2-    240729 L01  0.6-  0.7-
240728 F51  0.1+  0.1+    240729 H21  0.1+  0.2+    240729 L01  0.0   0.8-
240728 F51  0.1-  0.0     240729 H21  0.0   0.5+    240729 L01  0.8-  0.2+
240728 F51  0.1+  0.1-    240729 H21  0.4+  0.2+    240730 673  0.4+  0.0
240728 J95  0.4-  0.6-    240729 H21  0.1+  0.1+    240730 673  1.1+  0.1-
Ephemeris:
2024 OU                  a,e,i = 1.55, 0.40, 7                   q = 0.9347
Date    TT    R. A. (2000) Decl.     Delta      r    Elong.  Phase     V
2024 06 30    07 19 36.1 -12 39 23   0.07102 0.9612    37.4   140.1    25.3
...
2024 07 15    02 10 07.8 +03 42 29   0.03787 1.0113    81.2    96.7    20.6
...
2024 07 23    23 47 16.6 +11 39 06   0.06196 1.0463   117.9    59.1    20.4
...
2024 07 29    23 00 22.7 +13 02 38   0.08702 1.0754   131.9    44.7    20.8
2024 07 30    22 54 51.8 +13 07 32   0.09145 1.0804   133.7    42.8    20.9
2024 07 31    22 49 47.5 +13 10 43   0.09594 1.0855   135.4    41.1    20.9
...
2024 08 06    22 26 11.3 +13 03 04   0.1240  1.1171   144.1    32.2    21.3
...
2024 08 14    22 06 04.2 +12 08 54   0.1647  1.1614   152.4    23.8    21.8
...
2024 08 29    21 46 37.0 +09 31 48   0.2533  1.2486   158.2    17.5    22.7
A. U. Tomatic                (C) Copyright 2024 MPC           M.P.E.C. 2024-O101
    
    
More information about the Iaude
mailing list